Location: Bremen
(53.0758°N, 8.8072°E)
Time: 10:18:34
(UTC+02:00)

BlueWalker 3 - Visible Passes

Search period start: 12 May 2025 00:00
Search period end: 22 May 2025 00:00
Orbit: 462 x 473 km, 53.2° (Epoch: 11 May)

Date Brightness Start Highest point End Pass type
(mag) Time Alt. Az. Time Alt. Az. Time Alt. Az.
12 May 1.7 00:04:44 10° W 00:08:24 87° S 00:10:38 22° E visible
12 May 3.1 01:42:32 10° W 01:44:33 26° WSW 01:44:33 26° WSW visible
12 May 1.7 21:55:07 10° WSW 21:58:46 79° SSE 22:02:25 10° E visible
12 May 1.7 23:32:52 10° W 23:36:32 90° S 23:39:31 15° E visible
13 May 2.5 01:10:40 10° W 01:13:27 37° WSW 01:13:27 37° WSW visible
13 May 1.7 23:01:00 10° W 23:04:39 88° N 23:08:19 10° E visible
14 May 2.0 00:38:45 10° W 00:42:17 47° SSW 00:42:22 46° SSW visible
14 May 1.8 22:29:06 10° W 22:32:45 86° N 22:36:26 10° E visible
15 May 1.9 00:06:52 10° W 00:10:25 52° SSW 00:11:19 40° SSE visible
15 May 1.8 21:57:12 10° W 22:00:51 86° N 22:04:30 10° E visible
15 May 1.9 23:34:57 10° W 23:38:33 57° SSW 23:40:17 27° SE visible
16 May 4.0 01:13:15 10° W 01:14:13 14° WSW 01:14:13 14° WSW visible
16 May 1.8 23:03:01 10° W 23:06:39 63° SSW 23:09:16 17° ESE visible
17 May 3.5 00:41:11 10° W 00:43:12 19° SW 00:43:12 19° SW visible
17 May 1.8 22:31:06 10° W 22:34:44 68° SSW 22:38:16 11° ESE visible
18 May 3.2 00:09:08 10° W 00:12:03 23° SW 00:12:12 23° SSW visible
18 May 3.1 23:37:07 10° W 23:40:11 26° SW 23:41:13 22° S visible
19 May 2.9 23:05:06 10° W 23:08:18 29° SSW 23:10:16 18° SSE visible
20 May 2.8 22:33:05 10° W 22:36:23 33° SSW 22:39:20 12° SSE visible
